Vorticity
nan nan nan nan nan nan nan nan nan nan nan nan nan nan nan nan nan nan nan nan nan nan nan nan nan nan nan nan nan nan nan nan nan nan nan nan nan nan nan nan nan nan nan
nan 7 7 10 10 7 6 9 7 7 7 5 7 9 6 4 10 11 8 10 8 4 4 4 5 5 5 5 5 6 6 6 7 7 8 8 8 8 8 8 8 8 nan
nan 8 6 8 10 3 8 5 7 8 11 8 6 5 8 8 7 6 10 8 11 10 6 5 5 5 5 5 5 6 6 7 8 9 9 9 9 9 9 9 8 8 nan
nan 5 11 8 5 7 9 8 10 10 7 7 7 7 7 8 6 8 9 8 9 11 11 8 6 5 5 5 5 6 6 7 8 9 9 9 10 9 9 10 10 9 nan
nan 10 9 7 5 9 8 9 12 11 10 10 8 9 8 8 8 10 5 7 10 8 13 13 9 8 6 5 6 6 6 6 7 7 9 9 10 11 11 10 11 11 nan
nan 8 11 5 7 9 9 13 8 4 9 4 12 12 7 7 9 8 6 9 7 7 11 10 9 13 12 7 7 7 7 7 8 8 9 9 10 10 10 11 12 12 nan
nan 5 9 12 4 6 10 9 5 10 13 11 8 6 9 9 6 7 9 10 9 9 7 5 8 11 14 13 8 8 8 9 10 9 9 9 8 9 9 10 11 11 nan
nan 8 9 17 8 4 8 7 5 8 6 12 12 10 7 8 12 9 8 10 9 9 8 9 8 5 6 14 19 8 6 9 9 10 9 8 8 8 8 9 10 11 nan
nan 8 7 9 7 10 9 6 6 10 14 7 8 8 10 13 11 9 8 9 7 8 10 8 9 10 6 11 13 8 5 7 9 8 7 8 8 8 8 8 9 10 nan
nan 8 9 4 9 5 6 9 9 8 10 12 13 9 7 8 1 7 11 9 8 8 6 9 14 9 10 11 6 7 6 5 6 6 6 6 8 7 8 8 9 10 nan
nan 6 8 8 9 5 5 7 7 8 12 16 1 10 13 14 9 3 13 5 8 11 9 7 9 10 11 11 7 3 5 7 3 4 5 6 7 7 6 6 8 10 nan
nan 10 7 7 7 8 7 9 7 7 13 10 3 8 13 8 12 7 15 6 7 11 7 14 9 4 5 9 10 11 7 4 1 5 5 6 6 7 6 6 6 9 nan
nan 12 8 8 7 6 8 10 8 7 6 1 13 13 8 9 8 6 6 16 6 7 5 7 2 5 13 13 4 5 18 9 1 5 6 6 6 7 7 6 5 8 nan
nan 11 8 8 9 7 9 7 8 9 9 8 5 6 8 9 7 13 7 7 10 8 11 7 4 14 13 5 4 9 17 9 4 4 6 5 7 7 7 6 7 8 nan
nan 6 8 8 9 9 10 7 7 9 9 7 9 10 8 8 9 9 10 7 10 10 15 6 11 10 8 7 8 8 6 7 7 9 13 8 7 6 7 6 8 9 nan
nan 9 15 11 8 9 8 6 7 9 10 7 6 10 11 7 7 10 8 9 12 10 9 9 11 8 7 7 5 7 8 9 14 16 13 9 7 6 7 7 7 8 nan
nan 12 8 11 9 8 8 8 6 12 11 7 8 7 7 8 8 7 9 10 9 9 9 8 8 6 8 10 8 8 8 11 18 16 7 7 8 6 7 9 6 8 nan
nan 8 9 8 7 7 9 9 6 8 11 8 7 9 10 10 11 9 6 10 10 9 9 10 9 10 9 13 16 9 8 9 15 14 9 13 8 8 9 10 7 7 nan
nan 9 8 7 9 8 10 7 7 8 9 9 7 7 8 9 10 10 9 8 11 11 9 11 9 9 10 10 12 13 11 11 5 9 15 21 14 9 9 16 13 7 nan
nan 9 9 8 9 14 12 13 11 8 8 9 9 10 10 14 11 8 7 10 10 9 10 10 12 10 9 9 8 8 9 9 7 8 10 6 13 15 22 23 16 8 nan
nan 9 9 12 10 9 12 9 8 16 16 8 14 9 10 12 10 13 11 9 9 9 9 8 7 11 8 8 10 10 9 8 11 9 7 8 11 13 24 19 11 8 nan
nan 12 12 13 15 4 6 16 17 9 10 13 11 13 9 4 13 11 10 10 9 7 7 9 8 8 7 8 10 10 7 7 11 7 6 10 10 13 14 13 12 12 nan
nan 12 15 13 7 3 6 14 16 17 11 14 12 14 12 6 8 9 9 15 17 13 9 8 9 9 9 9 8 8 9 10 9 9 12 14 10 9 11 11 13 14 nan
nan 11 8 8 7 4 7 16 18 17 9 7 12 14 9 7 8 11 11 13 13 16 17 11 7 7 6 8 8 10 11 12 12 11 14 13 9 8 8 9 16 15 nan
nan 9 9 9 8 3 8 19 25 13 9 6 7 10 11 6 4 13 18 10 10 9 6 9 10 11 15 17 18 11 11 11 11 10 10 10 9 10 12 9 3 13 nan
nan nan nan nan nan nan nan nan nan nan nan nan nan nan nan nan nan nan nan nan nan nan nan nan nan nan nan nan nan nan nan nan nan nan nan nan nan nan nan nan nan nan nan
CAPE
2655 1962 2435 1056 673 850 442 1237 1150 1224 1861 1499 1081 933 689 916 118 13 274 1528 1480 1320 1376 1212 1082 1286 1576 1753 1853 1989 2292 2803 3234 3320 3393 3594 3659 3702 3757 3781 3610 3442 3544
2943 2138 2263 2378 489 714 1067 1174 2641 1364 2066 1081 1751 1347 1085 1001 1503 66 113 789 1506 1266 958 1099 1258 1465 1627 1756 1992 2531 3358 3746 3876 4012 4059 4055 4074 4108 4104 4023 3939 3687 3461
2967 2267 1951 2427 1865 2900 2642 2661 2515 1647 1388 1262 1426 1758 1197 1215 1222 1331 260 365 901 1906 1805 1610 1661 1791 1853 2031 2407 3265 3741 3919 4008 3932 3847 3845 3980 4087 4152 4142 4106 3857 3716
2390 3206 2347 1567 1944 1831 3250 2951 2074 1779 1449 1826 1716 1811 1702 1185 1457 1528 1496 1068 922 773 2129 2554 2377 2354 2187 2055 2873 3532 3688 3795 3673 3556 3623 3695 3842 3930 3959 3938 3955 3833 3569
2455 3284 2446 2843 2504 2175 2181 2357 1197 1958 670 1252 1353 1533 1749 1206 1860 1137 1544 1873 1507 1694 1462 2107 2479 2421 2513 2618 3569 3621 3530 3561 3415 3538 3541 3489 3561 3609 3629 3647 3643 3595 3468
2488 2613 3069 2276 2213 2081 668 1681 1376 2123 3086 1135 754 1033 1638 1877 1758 1436 1610 1485 1615 1655 1816 2353 2043 2003 2627 3592 3664 3365 3303 3398 3305 3360 3357 3469 3333 3215 3126 3048 3039 3170 3228
2184 3247 2929 1699 0 746 2699 2015 2289 3093 3002 511 3791 1830 2033 1951 1893 1885 1598 1266 1377 1638 1294 1756 2354 3019 1952 2764 3497 3184 3078 2941 2874 3329 3514 3193 2830 2729 2639 2637 2640 2837 3007
2469 2872 2436 1696 1089 1081 3044 2971 2208 3445 2964 1856 2229 2902 1945 1986 1510 1182 1766 1165 1309 1201 1315 1504 2749 2696 2741 3001 2652 3090 1366 2359 3005 3344 3373 2956 2525 2472 2542 2530 2443 2514 2748
2646 2622 2379 2170 1056 1237 2407 3222 3462 3469 3191 1615 2862 2915 2166 1919 1787 1467 1348 1823 1380 2088 1950 1772 1913 2519 2773 2857 3031 2776 2201 1997 2375 2706 2569 2343 2227 2398 2506 2587 2454 2415 2514
2171 2288 2756 1616 0 14 1549 3444 3095 3180 3577 3239 2526 1855 85 1377 2103 2232 1638 1253 1412 1476 1437 1574 1402 2405 2450 2481 2732 2058 1851 1592 1298 1423 1482 1755 1911 2259 2569 2675 2524 2475 2537
2266 2155 2915 2251 668 741 1789 3330 3308 3497 3234 1743 2071 3771 1863 2497 975 2513 1891 948 1256 1666 2034 2356 1235 2048 2779 2740 3147 1464 945 1004 469 694 913 1139 1527 1952 2415 2518 2402 2261 2405
2339 2735 2790 3160 2959 1768 2283 2985 3897 3358 2868 1228 1227 3134 610 753 121 1285 532 163 892 1799 1778 2072 2338 1808 2007 2005 1516 1019 1430 284 139 621 576 638 875 1216 1227 1582 1890 1786 1719
2031 2026 2490 2857 2608 2261 2779 2894 3381 3658 3318 3187 3499 3139 325 2 0 173 92 23 135 585 201 0 198 614 1872 1822 1706 1046 1864 243 542 824 546 810 339 512 749 1042 1187 1173 969
2239 2657 2238 2535 2691 2833 2766 2919 3104 2755 2742 3262 3897 4038 3252 2682 1975 1658 2000 961 1644 646 0 0 57 374 2324 2276 2292 1999 1425 433 655 559 325 868 268 146 272 392 517 498 236
1802 2197 2541 2336 2614 2345 3000 2844 2790 3157 2140 3022 2922 3365 3272 2376 2081 2564 1122 2173 2389 1523 1002 404 637 2013 2070 1884 1844 2663 2497 1938 1068 761 770 604 346 93 85 87 120 88 18
249 47 1834 2340 2264 2076 2812 2715 2064 2027 2523 2760 2292 2353 3285 2751 2211 1743 1675 1694 2224 1990 1672 1595 1299 1647 2583 1838 1600 2106 2877 1457 1427 1344 913 685 227 139 120 59 69 107 0
71 1653 2331 2259 2339 2641 2603 2674 2246 2353 1937 2953 2930 2861 2467 2667 2544 2023 1731 1465 1060 1469 1346 1063 858 947 1595 2020 2774 2832 3163 1985 1590 280 478 417 148 133 130 50 37 149 0
1682 1944 2750 3042 2763 2392 2063 2528 2822 1699 1817 1932 2332 2642 2528 1596 2619 2947 2642 2703 2523 1984 2445 1903 2426 2005 2078 1959 3655 3632 2862 1585 1559 405 344 288 176 82 72 0 27 94 1
2820 2283 2333 2806 2652 2484 2443 2211 2732 2682 2221 2318 2122 1946 1190 2020 2265 2614 2963 2831 2214 2305 1918 2194 2020 1627 1447 1746 1409 2495 1569 2629 979 596 802 412 36 36 48 0 0 85 22
2329 2165 2079 2042 2785 2057 1937 2037 2225 1801 2676 2194 2544 2010 1939 1981 1714 2539 1940 2227 2277 2066 1673 1936 991 834 1514 1627 1856 1593 1422 1963 1639 1761 1720 1729 1497 1171 1127 6 0 100 1
2489 2070 1788 1882 1978 436 0 0 187 915 1601 1620 2166 1626 1589 698 453 651 1337 2406 2818 2535 2423 1546 1508 1392 1748 1782 1665 2092 1851 1934 1983 2010 1945 1697 1675 1912 1594 19 154 159 3
1680 1837 1571 1389 201 0 0 0 0 753 787 645 1222 1529 440 5 355 505 640 711 653 1759 1958 1854 1530 1457 1694 1973 1920 1998 2075 1991 1598 1953 1887 1695 1663 1686 1685 955 805 235 35
1010 1004 815 141 0 0 0 0 0 747 1698 1716 1178 1086 540 0 0 0 0 252 987 384 248 985 1647 1650 1515 1428 1940 1420 1082 1770 1704 1433 1550 1505 1848 1721 1678 1557 258 17 0
304 20 15 0 0 0 0 0 0 1265 1319 529 240 558 0 0 0 0 0 366 418 820 1127 278 826 446 218 296 467 639 1083 1433 1312 1058 1081 1386 1325 802 777 862 471 264 1
0 0 0 0 0 0 0 0 0 1309 156 0 0 0 0 0 0 0 2 3 7 3 0 0 0 0 0 0 0 0 888 749 743 514 556 18 303 232 527 814 789 312 15
0 0 0 0 0 0 0 0 0 61 255 27 0 0 0 0 0 0 0 0 0 0 0 0 0 181 155 121 49 323 87 0 0 0 17 0 0 0 175 1221 228 447 555